"Pseudo-MPEC" for P21Crzu

Created 2022 Dec 15 16:22:16 UT using Find_Orb

Click here for an explanation of pseudo-MPECs

 
 Astrometry: 
     P21Crzu* C2022 12 01qcl^+fRAstrometry]redacted;42q6^1FlSIYJhwW*c^clickioF52
     P21Crzu  C2022 12 01f8H^UnB`[NwI`H_EY+here7f/J7QGHfor[eaJ4M\1qQ.1f\biC0(F52
     P21Crzu  C2022 12 01BjhYVw]G(_pcJWg^^^up/LXul:]explanation[7ncY8QlH(*p0iF52

Station data:
(F52) Pan-STARRS 2, Haleakala  (N20.707382 W156.255910)  US/Hawaii.
   Observers J. Bulger, T. Dukes, T. Lowe, A. Schultz, M. Willman. Measurers
   K. Chambers, S. Chastel, T. de Boer, L. Denneau, J. Fairlamb, H.
   Flewelling, M. Huber, C.-C. Lin, E. Magnier, Y. Ramanjooloo, R. Wainscoat,
   R. Weryk. 1.8-m Ritchey-Chrétien + CCD.

Orbital elements:  P21Crzu
   Perihelion 2022 Jul 6.80354 +/- 146 TT = 19:17:05 (JD 2459767.30354)
Epoch 2022 Dec  2.0 TT = JDT 2459915.5   Earth MOID: 0.0013      AutoNEOCP
M 134.70412820 +/- 110              (J2000 ecliptic)
n   0.90895644 +/- 0.439            Peri.   59.99133 +/- 57
a   1.05545729 +/- 0.34             Node   230.40255 +/- 44
e   0.0627923 +/- 0.25              Incl.    0.52647 +/- 70
P   1.08/396.05d           H 26.98  G  0.15   U 12.2  SR
q 0.98918264 +/- 0.644    Q 1.12173195 +/- 17.1
From 3 observations 2022 Dec. 1 (52.9 min); mean residual 0".11
Residuals in arcseconds: 
221201 F52  .01+  .15+    221201 F52  .01-  .22-    221201 F52  .00   .07+    

Ephemerides (geocentric):
Date (UTC) HH   RA             Dec           delta  r     elong  mag " sig PA
---- --------  ------------   ------------  ------ ------ -----  --- --------
2022 12 15 16  04 14 30.281   +18 58 40.19  .13397 1.1122 161.7 23.8  35d 164
2022 12 15 17  04 14 25.040   +18 58 22.66  .13404 1.1123 161.6 23.8  35d 164
2022 12 15 18  04 14 19.809   +18 58 05.17  .13411 1.1123 161.6 23.8  35d 164
2022 12 15 19  04 14 14.589   +18 57 47.71  .13418 1.1123 161.5 23.8  35d 164
2022 12 15 20  04 14 09.380   +18 57 30.28  .13425 1.1123 161.4 23.8  35d 164
2022 12 15 21  04 14 04.182   +18 57 12.88  .13431 1.1124 161.4 23.8  36d 164
2022 12 15 22  04 13 58.995   +18 56 55.51  .13438 1.1124 161.3 23.8  36d 164
2022 12 15 23  04 13 53.818   +18 56 38.17  .13445 1.1124 161.2 23.8  36d 164
2022 12 16 00  04 13 48.653   +18 56 20.86  .13452 1.1124 161.2 23.8  36d 164
2022 12 16 01  04 13 43.498   +18 56 03.59  .13459 1.1124 161.1 23.8  36d 164
2022 12 16 02  04 13 38.354   +18 55 46.35  .13466 1.1125 161.0 23.8  36d 164
2022 12 16 03  04 13 33.221   +18 55 29.13  .13473 1.1125 161.0 23.8  36d 164
2022 12 16 04  04 13 28.099   +18 55 11.95  .13481 1.1125 160.9 23.8  36d 164
2022 12 16 05  04 13 22.987   +18 54 54.80  .13488 1.1125 160.9 23.8  36d 164
2022 12 16 06  04 13 17.887   +18 54 37.69  .13495 1.1125 160.8 23.8  36d 164
2022 12 16 07  04 13 12.797   +18 54 20.60  .13502 1.1126 160.7 23.8  36d 164
2022 12 16 08  04 13 07.718   +18 54 03.55  .13509 1.1126 160.7 23.8  36d 164
2022 12 16 09  04 13 02.651   +18 53 46.53  .13516 1.1126 160.6 23.8  36d 164
2022 12 16 10  04 12 57.594   +18 53 29.54  .13523 1.1126 160.5 23.8  36d 164
2022 12 16 11  04 12 52.548   +18 53 12.58  .13530 1.1127 160.5 23.8  36d 164
2022 12 16 12  04 12 47.513   +18 52 55.66  .13537 1.1127 160.4 23.8  36d 164
2022 12 16 13  04 12 42.489   +18 52 38.77  .13544 1.1127 160.4 23.8  36d 164
2022 12 16 14  04 12 37.476   +18 52 21.91  .13552 1.1127 160.3 23.8  36d 164
2022 12 16 15  04 12 32.474   +18 52 05.08  .13559 1.1127 160.2 23.8  36d 164
2022 12 16 16  04 12 27.483   +18 51 48.29  .13566 1.1128 160.2 23.8  36d 164
2022 12 16 17  04 12 22.503   +18 51 31.53  .13573 1.1128 160.1 23.8  36d 164
2022 12 16 18  04 12 17.534   +18 51 14.80  .13580 1.1128 160.0 23.8  36d 164
2022 12 16 19  04 12 12.575   +18 50 58.10  .13588 1.1128 160.0 23.8  36d 164
2022 12 16 20  04 12 07.628   +18 50 41.44  .13595 1.1128 159.9 23.9  36d 164
2022 12 16 21  04 12 02.692   +18 50 24.81  .13602 1.1129 159.9 23.9  36d 164
2022 12 16 22  04 11 57.768   +18 50 08.21  .13609 1.1129 159.8 23.9  36d 164
2022 12 16 23  04 11 52.854   +18 49 51.65  .13617 1.1129 159.7 23.9  36d 164
2022 12 17 00  04 11 47.951   +18 49 35.12  .13624 1.1129 159.7 23.9  36d 164
2022 12 17 01  04 11 43.059   +18 49 18.62  .13631 1.1129 159.6 23.9  36d 164
2022 12 17 02  04 11 38.178   +18 49 02.16  .13639 1.1130 159.5 23.9  36d 164
2022 12 17 03  04 11 33.309   +18 48 45.73  .13646 1.1130 159.5 23.9  37d 164
2022 12 17 04  04 11 28.450   +18 48 29.33  .13653 1.1130 159.4 23.9  37d 164
2022 12 17 05  04 11 23.603   +18 48 12.97  .13661 1.1130 159.4 23.9  37d 164
2022 12 17 06  04 11 18.766   +18 47 56.64  .13668 1.1130 159.3 23.9  37d 164
2022 12 17 07  04 11 13.941   +18 47 40.34  .13675 1.1131 159.2 23.9  37d 164
2022 12 17 08  04 11 09.127   +18 47 24.08  .13683 1.1131 159.2 23.9  37d 164
2022 12 17 09  04 11 04.324   +18 47 07.85  .13690 1.1131 159.1 23.9  37d 164
2022 12 17 10  04 10 59.532   +18 46 51.66  .13698 1.1131 159.1 23.9  37d 164
2022 12 17 11  04 10 54.752   +18 46 35.50  .13705 1.1131 159.0 23.9  37d 164
2022 12 17 12  04 10 49.982   +18 46 19.37  .13712 1.1132 158.9 23.9  37d 164
2022 12 17 13  04 10 45.224   +18 46 03.28  .13720 1.1132 158.9 23.9  37d 164
2022 12 17 14  04 10 40.477   +18 45 47.22  .13727 1.1132 158.8 23.9  37d 164
2022 12 17 15  04 10 35.741   +18 45 31.20  .13735 1.1132 158.7 23.9  37d 164